FW9069 Weather Reports


Display with metric or nautical units.
time (UTC)temp
F
wind
direction
speed
MPH
gust
MPH
rain 1hr
in
rain 24hr
in
rain mn
in
humidity
%
barometer
mb
20260502160333 52 328 3.0 4.0 0.00 0.00 0.00 87 1016.6
20260502151823 50 264 1.0 3.0 0.00 0.00 0.00 89 1016.6
20260502150335 49 260 0.0 2.0 0.00 0.00 0.00 89 1016.6
20260502130324 48 223 5.0 7.0 0.00 0.00 0.00 87 1016.6
20260502123322 48 240 3.0 7.0 0.00 0.00 0.00 86 1016.5
20260502121833 48 242 3.0 7.0 0.00 0.00 0.00 86 1016.6
20260502120322 49 240 2.0 7.0 0.00 0.00 0.00 86 1016.5
20260502114829 49 229 3.0 6.0 0.00 0.00 0.00 85 1016.5
20260502113340 49 241 2.0 3.0 0.00 0.00 0.00 85 1016.5
20260502111826 50 240 1.0 3.0 0.00 0.00 0.00 85 1016.2
20260502110335 50 236 2.0 5.0 0.00 0.00 0.00 85 1016.5
20260502104822 50 273 1.0 3.0 0.00 0.00 0.00 84 1016.0
20260502103330 50 242 1.0 5.0 0.00 0.00 0.00 84 1016.2
20260502101822 50 245 3.0 9.0 0.00 0.00 0.00 84 1016.2
20260502100325 50 234 5.0 9.0 0.00 0.00 0.00 83 1016.1
20260502090331 52 230 5.0 10.0 0.00 0.00 0.00 81 1016.6
20260502070345 52 223 9.0 12.0 0.00 0.00 0.00 81 1017.2
20260502064832 52 240 7.0 13.0 0.00 0.00 0.00 82 1017.1
20260502063324 52 219 6.0 12.0 0.00 0.00 0.00 82 1017.1
20260502061833 52 231 8.0 15.0 0.00 0.00 0.00 83 1017.0
20260502060330 52 220 8.0 15.0 0.00 0.00 0.00 83 1017.1
20260502054839 52 238 6.0 16.0 0.00 0.00 0.00 83 1017.1
20260502053354 52 235 10.0 19.0 0.00 0.00 0.00 83 1016.9
20260502051822 52 237 11.0 16.0 0.00 0.00 0.00 83 1016.9
20260502050355 52 223 8.0 15.0 0.00 0.00 0.00 83 1016.8
20260502044831 53 221 10.0 15.0 0.00 0.00 0.00 83 1016.6
20260502043321 53 244 9.0 18.0 0.00 0.00 0.00 83 1016.6
20260502041833 53 217 9.0 19.0 0.00 0.00 0.00 83 1016.3
20260502040356 53 254 11.0 19.0 0.00 0.00 0.00 83 1016.2
20260502034819 54 267 10.0 19.0 0.00 0.00 0.00 82 1016.0
20260502033327 54 356 5.0 15.0 0.00 0.00 0.00 81 1016.1
20260502031837 54 222 11.0 18.0 0.00 0.00 0.00 81 1015.3
20260502030327 55 217 14.0 22.0 0.00 0.00 0.00 79 1015.1
20260502024843 56 230 13.0 18.0 0.00 0.00 0.00 78 1014.9
20260502023328 57 233 10.0 17.0 0.00 0.00 0.00 76 1014.9
20260502021837 58 222 11.0 18.0 0.00 0.00 0.00 75 1014.8
20260502020325 59 223 12.0 19.0 0.00 0.00 0.00 74 1015.0
20260502014839 60 229 11.0 20.0 0.00 0.00 0.00 72 1014.9
20260502013328 62 215 11.0 16.0 0.00 0.00 0.00 70 1015.1
20260502011838 63 251 8.0 17.0 0.00 0.00 0.00 68 1015.1
20260502010329 64 202 11.0 15.0 0.00 0.00 0.00 67 1015.0
20260502004836 66 238 9.0 19.0 0.00 0.00 0.00 65 1015.1
20260502003344 68 248 6.0 14.0 0.00 0.00 0.00 63 1015.3
20260502001831 70 233 6.0 13.0 0.00 0.00 0.00 60 1015.1
20260502000339 71 234 5.0 12.0 0.00 0.00 0.00 59 1015.3
20260501234822 73 244 7.0 10.0 0.00 0.00 0.00 58 1015.2
20260501233330 73 236 1.0 10.0 0.00 0.00 0.00 57 1015.4
20260501231819 73 225 7.0 11.0 0.00 0.00 0.00 57 1015.4
20260501230322 73 220 7.0 12.0 0.00 0.00 0.00 58 1015.6
20260501224832 73 208 8.0 14.0 0.00 0.00 0.00 58 1015.7
20260501223337 73 192 4.0 8.0 0.00 0.00 0.00 64 1015.7
20260501221824 73 243 2.0 10.0 0.00 0.00 0.00 62 1016.1
20260501220332 73 215 4.0 7.0 0.00 0.00 0.00 63 1016.1
20260501214852 72 168 2.0 9.0 0.00 0.00 0.00 62 1016.3
20260501213342 72 107 4.0 7.0 0.00 0.00 0.00 60 1016.4
20260501211852 71 1 2.0 4.0 0.00 0.00 0.00 58 1016.4
20260501210319 71 76 4.0 8.0 0.00 0.00 0.00 61 1016.4
20260501204847 70 163 1.0 6.0 0.00 0.00 0.00 61 1016.5
20260501203333 70 150 3.0 5.0 0.00 0.00 0.00 62 1016.8
20260501201818 69 237 2.0 6.0 0.00 0.00 0.00 64 1017.1
20260501200334 67 223 2.0 8.0 0.00 0.00 0.00 71 1017.2
20260501194843 66 227 1.0 9.0 0.00 0.00 0.00 70 1017.5
20260501193352 66 182 2.0 8.0 0.00 0.00 0.00 71 1017.6
20260501191821 65 238 3.0 7.0 0.00 0.00 0.00 72 1017.7
20260501190330 64 242 4.0 8.0 0.00 0.00 0.00 73 1017.6
20260501184837 63 237 4.0 9.0 0.00 0.00 0.00 74 1017.7
20260501183323 61 231 3.0 7.0 0.00 0.00 0.00 77 1017.8
20260501181833 60 221 4.0 9.0 0.00 0.00 0.00 78 1017.8
20260501180335 59 215 3.0 7.0 0.00 0.00 0.00 81 1017.8
20260501174824 58 189 2.0 6.0 0.00 0.00 0.00 84 1017.9
20260501173343 58 159 2.0 5.0 0.00 0.00 0.00 84 1018.0
20260501171853 57 170 4.0 8.0 0.00 0.00 0.00 84 1018.0
20260501170322 56 179 4.0 8.0 0.00 0.00 0.00 86 1018.0
20260501164848 55 175 2.0 8.0 0.00 0.00 0.00 88 1017.9
20260501163336 54 175 2.0 4.0 0.00 0.00 0.00 88 1017.8
20260501161823 54 199 2.0 4.0 0.00 0.00 0.00 90 1017.8